Time,TemperatureF,DewpointF,PressureIn,WindDirection,WindDirectionDegrees,WindSpeedMPH,WindSpeedGustMPH,Humidity,HourlyPrecipIn,Conditions,Clouds,dailyrainin,SoftwareType,DateUTC
2013-02-05 00:00:00,35.4,33.3,28.00,SW,225,6.0,16.0,92,0.00,,,0.00,Weather View 32 v70,2013-02-05 05:00:00,
2013-02-05 00:05:00,35.3,33.5,28.00,SW,225,7.0,16.0,93,0.00,,,0.00,Weather View 32 v70,2013-02-05 05:05:00,
2013-02-05 00:10:00,35.3,33.5,28.00,SW,225,7.0,16.0,93,0.00,,,0.00,Weather View 32 v70,2013-02-05 05:10:00,
2013-02-05 00:15:00,35.4,33.3,28.00,SW,225,9.0,16.0,92,0.00,,,0.00,Weather View 32 v70,2013-02-05 05:15:00,
2013-02-05 00:20:00,35.5,33.4,28.00,SW,225,7.0,16.0,92,0.00,,,0.00,Weather View 32 v70,2013-02-05 05:20:00,
2013-02-05 00:25:00,35.5,33.4,28.00,SW,225,9.0,16.0,92,0.00,,,0.00,Weather View 32 v70,2013-02-05 05:25:00,
2013-02-05 00:30:00,35.7,33.6,28.00,SW,225,4.0,14.0,92,0.00,,,0.00,Weather View 32 v70,2013-02-05 05:30:00,
2013-02-05 00:35:00,35.6,33.2,28.00,SW,225,6.0,14.0,91,0.00,,,0.00,Weather View 32 v70,2013-02-05 05:35:00,
2013-02-05 00:40:00,35.8,33.4,28.00,SW,225,8.0,14.0,91,0.00,,,0.00,Weather View 32 v70,2013-02-05 05:40:00,
2013-02-05 00:45:00,36.2,33.5,28.00,SW,225,6.0,14.0,90,0.00,,,0.00,Weather View 32 v70,2013-02-05 05:45:00,
2013-02-05 00:50:00,36.4,33.5,28.00,SW,225,6.0,14.0,89,0.00,,,0.00,Weather View 32 v70,2013-02-05 05:50:00,
2013-02-05 00:55:00,36.7,33.8,28.00,SW,225,6.0,14.0,89,0.00,,,0.00,Weather View 32 v70,2013-02-05 05:55:00,
2013-02-05 01:00:00,36.7,33.5,27.99,SW,225,9.0,12.0,88,0.00,,,0.00,Weather View 32 v70,2013-02-05 06:00:00,
2013-02-05 01:05:00,36.9,33.4,27.99,SW,225,5.0,12.0,87,0.00,,,0.00,Weather View 32 v70,2013-02-05 06:05:00,
2013-02-05 01:10:00,36.8,33.3,27.99,SW,225,6.0,11.0,87,0.00,,,0.00,Weather View 32 v70,2013-02-05 06:10:00,
2013-02-05 01:15:00,36.8,33.0,27.99,SW,225,6.0,12.0,86,0.00,,,0.00,Weather View 32 v70,2013-02-05 06:15:00,
2013-02-05 01:20:00,36.9,33.1,28.00,SW,225,3.0,12.0,86,0.00,,,0.00,Weather View 32 v70,2013-02-05 06:20:00,
2013-02-05 01:25:00,37.2,33.1,27.99,SW,225,6.0,12.0,85,0.00,,,0.00,Weather View 32 v70,2013-02-05 06:25:00,
2013-02-05 01:30:00,37.2,33.1,27.99,SW,225,6.0,12.0,85,0.00,,,0.00,Weather View 32 v70,2013-02-05 06:30:00,
2013-02-05 01:35:00,37.5,32.8,27.99,SW,225,6.0,12.0,83,0.00,,,0.00,Weather View 32 v70,2013-02-05 06:35:00,
2013-02-05 01:40:00,37.7,33.0,27.99,SW,225,7.0,13.0,83,0.00,,,0.00,Weather View 32 v70,2013-02-05 06:40:00,
2013-02-05 01:45:00,37.7,32.7,27.99,SW,225,6.0,13.0,82,0.00,,,0.00,Weather View 32 v70,2013-02-05 06:45:00,
2013-02-05 01:50:00,37.8,32.8,27.99,SW,225,7.0,13.0,82,0.00,,,0.00,Weather View 32 v70,2013-02-05 06:50:00,
2013-02-05 01:55:00,37.8,32.5,27.99,South,180,7.0,13.0,81,0.00,,,0.00,Weather View 32 v70,2013-02-05 06:55:00,
2013-02-05 02:00:00,37.9,32.6,27.99,SW,225,11.0,13.0,81,0.00,,,0.00,Weather View 32 v70,2013-02-05 07:00:00,
2013-02-05 02:05:00,38.1,32.8,27.99,SSW,202,9.0,13.0,81,0.00,,,0.00,Weather View 32 v70,2013-02-05 07:05:00,
2013-02-05 02:10:00,38.2,32.9,27.99,SSW,202,5.0,13.0,81,0.00,,,0.00,Weather View 32 v70,2013-02-05 07:10:00,
2013-02-05 02:15:00,38.3,32.7,27.99,SSW,202,5.0,13.0,80,0.00,,,0.00,Weather View 32 v70,2013-02-05 07:15:00,
2013-02-05 02:20:00,38.5,32.9,27.99,SSW,202,4.0,13.0,80,0.00,,,0.00,Weather View 32 v70,2013-02-05 07:20:00,
2013-02-05 02:25:00,38.5,32.9,27.99,SW,225,5.0,13.0,80,0.00,,,0.00,Weather View 32 v70,2013-02-05 07:25:00,
2013-02-05 02:30:00,38.7,33.1,27.99,SW,225,5.0,13.0,80,0.00,,,0.00,Weather View 32 v70,2013-02-05 07:30:00,
2013-02-05 02:35:00,38.7,33.1,27.99,SW,225,4.0,13.0,80,0.00,,,0.00,Weather View 32 v70,2013-02-05 07:35:00,
2013-02-05 02:40:00,38.8,33.2,27.99,SW,225,3.0,11.0,80,0.00,,,0.00,Weather View 32 v70,2013-02-05 07:40:00,
2013-02-05 02:45:00,38.8,33.2,27.98,SW,225,4.0,11.0,80,0.00,,,0.00,Weather View 32 v70,2013-02-05 07:45:00,
2013-02-05 02:50:00,38.8,33.2,27.98,SW,225,4.0,11.0,80,0.00,,,0.00,Weather View 32 v70,2013-02-05 07:50:00,
2013-02-05 02:55:00,38.9,32.9,27.99,SW,225,2.0,11.0,79,0.00,,,0.00,Weather View 32 v70,2013-02-05 07:55:00,
2013-02-05 03:00:00,38.9,33.3,27.98,SW,225,4.0,11.0,80,0.00,,,0.00,Weather View 32 v70,2013-02-05 08:00:00,
2013-02-05 03:05:00,38.7,33.1,27.98,SSW,202,3.0,10.0,80,0.00,,,0.00,Weather View 32 v70,2013-02-05 08:05:00,
2013-02-05 03:10:00,38.5,32.9,27.98,SSW,202,2.0,10.0,80,0.00,,,0.00,Weather View 32 v70,2013-02-05 08:10:00,
2013-02-05 03:15:00,37.4,31.8,27.98,East,90,2.0,10.0,80,0.00,,,0.00,Weather View 32 v70,2013-02-05 08:15:00,
2013-02-05 03:20:00,35.9,31.5,27.98,East,90,2.0,8.0,84,0.00,,,0.00,Weather View 32 v70,2013-02-05 08:20:00,
2013-02-05 03:25:00,34.9,31.1,27.98,East,90,1.0,8.0,86,0.00,,,0.00,Weather View 32 v70,2013-02-05 08:25:00,
2013-02-05 03:30:00,34.4,30.9,27.97,NE,45,2.0,8.0,87,0.00,,,0.00,Weather View 32 v70,2013-02-05 08:30:00,
2013-02-05 03:35:00,33.9,31.0,27.98,NE,45,1.0,8.0,89,0.00,,,0.00,Weather View 32 v70,2013-02-05 08:35:00,
2013-02-05 03:40:00,33.9,31.3,27.98,NE,45,2.0,8.0,90,0.00,,,0.00,Weather View 32 v70,2013-02-05 08:40:00,
2013-02-05 03:45:00,33.9,31.3,27.98,NE,45,2.0,8.0,90,0.00,,,0.00,Weather View 32 v70,2013-02-05 08:45:00,
2013-02-05 03:50:00,33.9,31.5,27.97,NE,45,1.0,7.0,91,0.00,,,0.00,Weather View 32 v70,2013-02-05 08:50:00,
2013-02-05 03:55:00,34.1,32.0,27.97,ESE,112,0.0,7.0,92,0.00,,,0.00,Weather View 32 v70,2013-02-05 08:55:00,
2013-02-05 04:00:00,34.5,32.1,27.97,SSW,202,0.0,6.0,91,0.00,,,0.00,Weather View 32 v70,2013-02-05 09:00:00,
2013-02-05 04:05:00,35.2,32.3,27.97,West,270,2.0,6.0,89,0.00,,,0.00,Weather View 32 v70,2013-02-05 09:05:00,
2013-02-05 04:10:00,35.5,32.3,27.97,West,270,0.0,4.0,88,0.00,,,0.00,Weather View 32 v70,2013-02-05 09:10:00,
2013-02-05 04:15:00,35.6,32.4,27.97,West,270,1.0,4.0,88,0.00,,,0.00,Weather View 32 v70,2013-02-05 09:15:00,
2013-02-05 04:20:00,36.4,32.6,27.97,SSW,202,4.0,4.0,86,0.00,,,0.00,Weather View 32 v70,2013-02-05 09:20:00,
2013-02-05 04:25:00,36.7,32.6,27.97,WNW,292,0.0,4.0,85,0.00,,,0.00,Weather View 32 v70,2013-02-05 09:25:00,
2013-02-05 04:30:00,36.6,32.2,27.97,North,360,0.0,4.0,84,0.00,,,0.00,Weather View 32 v70,2013-02-05 09:30:00,
2013-02-05 04:35:00,35.6,31.5,27.97,East,90,2.0,4.0,85,0.00,,,0.00,Weather View 32 v70,2013-02-05 09:35:00,
2013-02-05 04:40:00,34.9,31.7,27.97,East,90,2.0,4.0,88,0.00,,,0.00,Weather View 32 v70,2013-02-05 09:40:00,
2013-02-05 04:45:00,34.6,31.7,27.97,East,90,2.0,4.0,89,0.00,,,0.00,Weather View 32 v70,2013-02-05 09:45:00,
2013-02-05 04:50:00,34.4,31.8,27.97,East,90,2.0,4.0,90,0.00,,,0.00,Weather View 32 v70,2013-02-05 09:50:00,
2013-02-05 04:55:00,34.3,31.7,27.97,NE,45,2.0,4.0,90,0.00,,,0.00,Weather View 32 v70,2013-02-05 09:55:00,
2013-02-05 05:00:00,34.3,31.7,27.97,ENE,67,2.0,4.0,90,0.00,,,0.00,Weather View 32 v70,2013-02-05 10:00:00,
2013-02-05 05:05:00,34.5,31.9,27.97,East,90,0.0,4.0,90,0.00,,,0.00,Weather View 32 v70,2013-02-05 10:05:00,
2013-02-05 05:10:00,34.3,31.4,27.97,East,90,0.0,4.0,89,0.00,,,0.00,Weather View 32 v70,2013-02-05 10:10:00,
2013-02-05 05:15:00,34.2,31.8,27.96,East,90,2.0,4.0,91,0.00,,,0.00,Weather View 32 v70,2013-02-05 10:15:00,
2013-02-05 05:20:00,34.4,32.0,27.97,East,90,1.0,4.0,91,0.00,,,0.00,Weather View 32 v70,2013-02-05 10:20:00,
2013-02-05 05:25:00,34.4,31.8,27.97,NE,45,1.0,3.0,90,0.00,,,0.00,Weather View 32 v70,2013-02-05 10:25:00,
2013-02-05 05:30:00,34.4,31.8,27.97,ENE,67,2.0,3.0,90,0.00,,,0.00,Weather View 32 v70,2013-02-05 10:30:00,
2013-02-05 05:35:00,34.8,32.2,27.97,East,90,1.0,3.0,90,0.00,,,0.00,Weather View 32 v70,2013-02-05 10:35:00,
2013-02-05 05:40:00,35.1,32.2,27.97,NE,45,1.0,3.0,89,0.00,,,0.00,Weather View 32 v70,2013-02-05 10:40:00,
2013-02-05 05:45:00,35.3,32.4,27.97,NE,45,1.0,3.0,89,0.00,,,0.00,Weather View 32 v70,2013-02-05 10:45:00,
2013-02-05 05:50:00,35.3,32.1,27.97,NE,45,2.0,3.0,88,0.00,,,0.00,Weather View 32 v70,2013-02-05 10:50:00,
2013-02-05 05:55:00,35.3,32.4,27.98,NE,45,1.0,3.0,89,0.00,,,0.00,Weather View 32 v70,2013-02-05 10:55:00,
2013-02-05 06:01:00,35.5,32.6,27.98,East,90,2.0,3.0,89,0.00,,,0.00,Weather View 32 v70,2013-02-05 11:01:00,
2013-02-05 06:06:00,35.7,32.5,27.98,East,90,2.0,3.0,88,0.00,,,0.00,Weather View 32 v70,2013-02-05 11:06:00,
2013-02-05 06:11:00,35.5,32.3,27.98,NE,45,3.0,4.0,88,0.00,,,0.00,Weather View 32 v70,2013-02-05 11:11:00,
2013-02-05 06:16:00,35.4,32.5,27.98,NE,45,1.0,4.0,89,0.00,,,0.00,Weather View 32 v70,2013-02-05 11:16:00,
2013-02-05 06:21:00,35.5,32.3,27.98,East,90,0.0,4.0,88,0.00,,,0.00,Weather View 32 v70,2013-02-05 11:21:00,
2013-02-05 06:26:00,35.4,32.2,27.98,NE,45,0.0,4.0,88,0.00,,,0.00,Weather View 32 v70,2013-02-05 11:26:00,
2013-02-05 06:31:00,35.2,32.3,27.98,East,90,1.0,4.0,89,0.00,,,0.00,Weather View 32 v70,2013-02-05 11:31:00,
2013-02-05 06:36:00,34.9,32.3,27.98,NE,45,2.0,4.0,90,0.00,,,0.00,Weather View 32 v70,2013-02-05 11:36:00,
2013-02-05 06:41:00,34.8,32.2,27.98,NE,45,2.0,4.0,90,0.00,,,0.00,Weather View 32 v70,2013-02-05 11:41:00,
2013-02-05 06:46:00,34.6,32.2,27.99,NE,45,2.0,4.0,91,0.00,,,0.00,Weather View 32 v70,2013-02-05 11:46:00,
2013-02-05 06:51:00,34.5,32.4,27.98,East,90,2.0,4.0,92,0.00,,,0.00,Weather View 32 v70,2013-02-05 11:51:00,
2013-02-05 06:56:00,34.9,32.3,27.98,East,90,2.0,4.0,90,0.00,,,0.00,Weather View 32 v70,2013-02-05 11:56:00,
2013-02-05 07:01:00,34.9,32.3,27.98,East,90,1.0,4.0,90,0.00,,,0.00,Weather View 32 v70,2013-02-05 12:01:00,
2013-02-05 07:06:00,34.8,32.4,27.98,East,90,2.0,4.0,91,0.00,,,0.00,Weather View 32 v70,2013-02-05 12:06:00,
2013-02-05 07:11:00,34.7,32.3,27.99,ENE,67,4.0,4.0,91,0.00,,,0.00,Weather View 32 v70,2013-02-05 12:11:00,
2013-02-05 07:16:00,34.9,32.3,27.99,East,90,1.0,4.0,90,0.00,,,0.00,Weather View 32 v70,2013-02-05 12:16:00,
2013-02-05 07:21:00,34.8,32.2,27.99,NE,45,2.0,4.0,90,0.00,,,0.00,Weather View 32 v70,2013-02-05 12:21:00,
2013-02-05 07:26:00,34.7,32.1,27.99,NE,45,1.0,4.0,90,0.00,,,0.00,Weather View 32 v70,2013-02-05 12:26:00,
2013-02-05 07:31:00,34.5,32.1,27.99,NE,45,2.0,4.0,91,0.00,,,0.00,Weather View 32 v70,2013-02-05 12:31:00,
2013-02-05 07:36:00,34.4,32.3,27.99,NE,45,2.0,4.0,92,0.00,,,0.00,Weather View 32 v70,2013-02-05 12:36:00,
2013-02-05 07:41:00,34.4,32.3,28.00,NE,45,1.0,4.0,92,0.00,,,0.00,Weather View 32 v70,2013-02-05 12:41:00,
2013-02-05 07:46:00,34.5,32.4,28.00,NE,45,2.0,4.0,92,0.00,,,0.00,Weather View 32 v70,2013-02-05 12:46:00,
2013-02-05 07:51:00,34.6,32.5,28.00,NNE,22,0.0,4.0,92,0.00,,,0.00,Weather View 32 v70,2013-02-05 12:51:00,
2013-02-05 07:56:00,34.8,33.0,28.01,NNE,22,2.0,4.0,93,0.00,,,0.00,Weather View 32 v70,2013-02-05 12:56:00,
2013-02-05 08:01:00,34.9,32.8,28.02,NNE,22,1.0,4.0,92,0.00,,,0.00,Weather View 32 v70,2013-02-05 13:01:00,
2013-02-05 08:06:00,35.3,33.2,28.02,North,360,0.0,4.0,92,0.00,,,0.00,Weather View 32 v70,2013-02-05 13:06:00,
2013-02-05 08:11:00,35.8,32.9,28.02,East,90,0.0,4.0,89,0.00,,,0.00,Weather View 32 v70,2013-02-05 13:11:00,
2013-02-05 08:16:00,36.2,33.3,28.02,NE,45,2.0,4.0,89,0.00,,,0.00,Weather View 32 v70,2013-02-05 13:16:00,
2013-02-05 08:21:00,36.6,33.1,28.02,NE,45,1.0,4.0,87,0.00,,,0.00,Weather View 32 v70,2013-02-05 13:21:00,
2013-02-05 08:26:00,36.9,33.1,28.02,NE,45,2.0,4.0,86,0.00,,,0.00,Weather View 32 v70,2013-02-05 13:26:00,
2013-02-05 08:31:00,37.2,33.1,28.02,ENE,67,1.0,4.0,85,0.00,,,0.00,Weather View 32 v70,2013-02-05 13:31:00,
2013-02-05 08:36:00,37.3,33.2,28.02,NE,45,2.0,4.0,85,0.00,,,0.00,Weather View 32 v70,2013-02-05 13:36:00,
2013-02-05 08:41:00,37.4,33.3,28.02,NE,45,0.0,4.0,85,0.00,,,0.00,Weather View 32 v70,2013-02-05 13:41:00,
2013-02-05 08:46:00,37.4,33.6,28.02,SE,135,1.0,4.0,86,0.00,,,0.00,Weather View 32 v70,2013-02-05 13:46:00,
2013-02-05 08:51:00,37.6,33.5,28.02,SE,135,0.0,3.0,85,0.00,,,0.00,Weather View 32 v70,2013-02-05 13:51:00,
2013-02-05 08:56:00,37.9,34.1,28.02,SE,135,0.0,3.0,86,0.00,,,0.00,Weather View 32 v70,2013-02-05 13:56:00,
2013-02-05 09:01:00,38.1,34.6,28.02,SE,135,0.0,3.0,87,0.00,,,0.00,Weather View 32 v70,2013-02-05 14:01:00,
2013-02-05 09:06:00,38.2,34.1,28.02,SE,135,1.0,3.0,85,0.00,,,0.00,Weather View 32 v70,2013-02-05 14:06:00,
2013-02-05 09:11:00,38.4,34.0,28.02,SE,135,1.0,3.0,84,0.00,,,0.00,Weather View 32 v70,2013-02-05 14:11:00,
2013-02-05 09:16:00,38.6,35.1,28.02,SE,135,0.0,3.0,87,0.00,,,0.00,Weather View 32 v70,2013-02-05 14:16:00,
2013-02-05 09:21:00,38.7,35.2,28.02,SE,135,0.0,3.0,87,0.00,,,0.00,Weather View 32 v70,2013-02-05 14:21:00,
2013-02-05 09:26:00,38.9,35.1,28.02,SE,135,0.0,3.0,86,0.00,,,0.00,Weather View 32 v70,2013-02-05 14:26:00,
2013-02-05 09:31:00,39.4,35.8,28.02,SE,135,0.0,3.0,87,0.00,,,0.00,Weather View 32 v70,2013-02-05 14:31:00,
2013-02-05 09:36:00,40.0,37.0,28.02,SE,135,0.0,3.0,89,0.00,,,0.00,Weather View 32 v70,2013-02-05 14:36:00,
2013-02-05 09:41:00,40.6,37.0,28.02,SE,135,0.0,2.0,87,0.00,,,0.00,Weather View 32 v70,2013-02-05 14:41:00,
2013-02-05 09:46:00,41.1,36.6,28.03,SW,225,2.0,2.0,84,0.01,,,0.01,Weather View 32 v70,2013-02-05 14:46:00,
2013-02-05 09:51:00,41.7,35.7,28.03,SSE,157,2.0,3.0,79,0.01,,,0.01,Weather View 32 v70,2013-02-05 14:51:00,
2013-02-05 09:56:00,42.4,36.0,28.02,SE,135,2.0,4.0,78,0.01,,,0.01,Weather View 32 v70,2013-02-05 14:56:00,
2013-02-05 10:01:00,43.2,36.1,28.03,South,180,3.0,4.0,76,0.01,,,0.01,Weather View 32 v70,2013-02-05 15:01:00,
2013-02-05 10:06:00,43.8,36.0,28.03,South,180,4.0,4.0,74,0.01,,,0.01,Weather View 32 v70,2013-02-05 15:06:00,
2013-02-05 10:11:00,44.2,35.0,28.03,SW,225,3.0,7.0,70,0.01,,,0.01,Weather View 32 v70,2013-02-05 15:11:00,
2013-02-05 10:16:00,45.2,36.0,28.04,SW,225,4.0,7.0,70,0.02,,,0.02,Weather View 32 v70,2013-02-05 15:16:00,
2013-02-05 10:21:00,45.6,35.6,28.04,SW,225,7.0,7.0,68,0.03,,,0.03,Weather View 32 v70,2013-02-05 15:21:00,
2013-02-05 10:26:00,45.3,35.0,28.04,SW,225,7.0,12.0,67,0.05,,,0.05,Weather View 32 v70,2013-02-05 15:26:00,
2013-02-05 10:31:00,45.2,35.3,28.04,SSW,202,11.0,12.0,68,0.07,,,0.08,Weather View 32 v70,2013-02-05 15:31:00,
2013-02-05 10:36:00,45.3,35.3,28.04,South,180,7.0,12.0,68,0.09,,,0.09,Weather View 32 v70,2013-02-05 15:36:00,
2013-02-05 10:41:00,45.3,35.3,28.04,South,180,6.0,12.0,68,0.10,,,0.10,Weather View 32 v70,2013-02-05 15:41:00,
2013-02-05 10:46:00,45.8,35.5,28.04,SW,225,7.0,14.0,67,0.10,,,0.11,Weather View 32 v70,2013-02-05 15:46:00,
2013-02-05 10:51:00,45.8,35.1,28.04,SSW,202,8.0,14.0,66,0.11,,,0.12,Weather View 32 v70,2013-02-05 15:51:00,
2013-02-05 10:56:00,45.9,35.5,28.04,SW,225,11.0,16.0,67,0.12,,,0.13,Weather View 32 v70,2013-02-05 15:56:00,
2013-02-05 11:01:00,45.8,35.5,28.04,SSW,202,9.0,16.0,67,0.13,,,0.14,Weather View 32 v70,2013-02-05 16:01:00,
2013-02-05 11:06:00,45.5,35.2,28.04,SW,225,6.0,17.0,67,0.13,,,0.14,Weather View 32 v70,2013-02-05 16:06:00,
2013-02-05 11:11:00,45.5,35.2,28.04,SW,225,10.0,17.0,67,0.14,,,0.15,Weather View 32 v70,2013-02-05 16:11:00,
2013-02-05 11:16:00,45.5,35.2,28.04,SW,225,11.0,17.0,67,0.13,,,0.15,Weather View 32 v70,2013-02-05 16:16:00,
2013-02-05 11:21:00,45.7,35.4,28.04,South,180,12.0,17.0,67,0.13,,,0.16,Weather View 32 v70,2013-02-05 16:21:00,
2013-02-05 11:26:00,45.9,35.5,28.03,SW,225,9.0,17.0,67,0.11,,,0.16,Weather View 32 v70,2013-02-05 16:26:00,
2013-02-05 11:31:00,46.2,35.8,28.03,SW,225,8.0,17.0,67,0.10,,,0.17,Weather View 32 v70,2013-02-05 16:31:00,
2013-02-05 11:36:00,45.9,35.5,28.03,SW,225,13.0,17.0,67,0.08,,,0.17,Weather View 32 v70,2013-02-05 16:36:00,
2013-02-05 11:41:00,46.5,35.7,28.03,SW,225,16.0,17.0,66,0.08,,,0.18,Weather View 32 v70,2013-02-05 16:41:00,
2013-02-05 11:46:00,46.5,35.7,28.03,SSW,202,13.0,17.0,66,0.07,,,0.18,Weather View 32 v70,2013-02-05 16:46:00,
2013-02-05 11:51:00,46.5,35.4,28.03,SW,225,12.0,19.0,65,0.07,,,0.19,Weather View 32 v70,2013-02-05 16:51:00,
2013-02-05 11:56:00,46.6,35.4,28.03,SW,225,12.0,19.0,65,0.06,,,0.19,Weather View 32 v70,2013-02-05 16:56:00,
2013-02-05 12:01:00,46.2,35.5,28.02,SW,225,11.0,19.0,66,0.06,,,0.20,Weather View 32 v70,2013-02-05 17:01:00,
2013-02-05 12:06:00,45.9,35.2,28.02,WSW,247,11.0,19.0,66,0.06,,,0.20,Weather View 32 v70,2013-02-05 17:06:00,
2013-02-05 12:11:00,45.7,35.4,28.02,SW,225,6.0,19.0,67,0.05,,,0.20,Weather View 32 v70,2013-02-05 17:11:00,
2013-02-05 12:16:00,45.9,35.5,28.02,SW,225,12.0,19.0,67,0.06,,,0.21,Weather View 32 v70,2013-02-05 17:16:00,
2013-02-05 12:21:00,46.4,35.6,28.02,SW,225,9.0,19.0,66,0.05,,,0.21,Weather View 32 v70,2013-02-05 17:21:00,
2013-02-05 12:26:00,46.5,35.7,28.01,SW,225,8.0,19.0,66,0.05,,,0.21,Weather View 32 v70,2013-02-05 17:26:00,
2013-02-05 12:31:00,46.4,35.6,28.01,SW,225,12.0,19.0,66,0.05,,,0.22,Weather View 32 v70,2013-02-05 17:31:00,
2013-02-05 12:36:00,45.9,34.8,28.01,SW,225,14.0,19.0,65,0.05,,,0.22,Weather View 32 v70,2013-02-05 17:36:00,
2013-02-05 12:41:00,45.7,35.0,28.01,SW,225,9.0,19.0,66,0.04,,,0.22,Weather View 32 v70,2013-02-05 17:41:00,
2013-02-05 12:46:00,45.6,35.3,28.01,SW,225,6.0,19.0,67,0.05,,,0.23,Weather View 32 v70,2013-02-05 17:46:00,
2013-02-05 12:51:00,45.3,35.3,28.00,South,180,10.0,20.0,68,0.04,,,0.23,Weather View 32 v70,2013-02-05 17:51:00,
2013-02-05 12:56:00,44.9,35.0,28.00,SW,225,8.0,20.0,68,0.04,,,0.23,Weather View 32 v70,2013-02-05 17:56:00,
2013-02-05 13:01:00,44.7,35.1,28.00,SW,225,9.0,20.0,69,0.04,,,0.24,Weather View 32 v70,2013-02-05 18:01:00,
2013-02-05 13:06:00,44.5,35.0,28.00,SW,225,7.0,20.0,69,0.04,,,0.24,Weather View 32 v70,2013-02-05 18:06:00,
2013-02-05 13:11:00,44.3,34.8,28.00,SW,225,12.0,20.0,69,0.04,,,0.24,Weather View 32 v70,2013-02-05 18:11:00,
2013-02-05 13:16:00,44.5,35.0,28.00,SSW,202,12.0,20.0,69,0.03,,,0.24,Weather View 32 v70,2013-02-05 18:16:00,
2013-02-05 13:21:00,44.7,35.1,28.00,SW,225,14.0,20.0,69,0.04,,,0.25,Weather View 32 v70,2013-02-05 18:21:00,
2013-02-05 13:27:00,44.6,34.7,28.00,WSW,247,6.0,20.0,68,0.04,,,0.25,Weather View 32 v70,2013-02-05 18:27:00,
2013-02-05 13:32:00,44.5,35.3,27.99,SW,225,9.0,20.0,70,0.03,,,0.25,Weather View 32 v70,2013-02-05 18:32:00,
2013-02-05 13:37:00,44.4,35.2,27.99,SW,225,10.0,20.0,70,0.03,,,0.25,Weather View 32 v70,2013-02-05 18:37:00,
2013-02-05 13:42:00,44.5,35.3,27.99,SW,225,9.0,20.0,70,0.03,,,0.25,Weather View 32 v70,2013-02-05 18:42:00,
2013-02-05 13:47:00,44.9,35.3,27.99,SW,225,9.0,20.0,69,0.03,,,0.26,Weather View 32 v70,2013-02-05 18:47:00,
2013-02-05 13:52:00,44.9,35.0,27.99,SW,225,9.0,17.0,68,0.03,,,0.26,Weather View 32 v70,2013-02-05 18:52:00,
2013-02-05 13:57:00,45.0,35.4,27.99,SW,225,12.0,17.0,69,0.03,,,0.26,Weather View 32 v70,2013-02-05 18:57:00,
2013-02-05 14:02:00,45.1,35.5,27.99,SW,225,8.0,17.0,69,0.02,,,0.26,Weather View 32 v70,2013-02-05 19:02:00,
2013-02-05 14:07:00,45.1,35.5,27.99,SW,225,5.0,16.0,69,0.03,,,0.27,Weather View 32 v70,2013-02-05 19:07:00,
2013-02-05 14:12:00,44.9,35.3,27.99,SW,225,11.0,16.0,69,0.03,,,0.27,Weather View 32 v70,2013-02-05 19:12:00,
2013-02-05 14:17:00,44.7,35.5,27.99,SW,225,8.0,16.0,70,0.03,,,0.27,Weather View 32 v70,2013-02-05 19:17:00,
2013-02-05 14:22:00,44.6,35.0,27.99,SW,225,10.0,17.0,69,0.02,,,0.27,Weather View 32 v70,2013-02-05 19:22:00,
2013-02-05 14:27:00,44.5,35.3,27.99,SW,225,9.0,17.0,70,0.02,,,0.27,Weather View 32 v70,2013-02-05 19:27:00,
2013-02-05 14:32:00,45.1,35.9,28.00,SW,225,12.0,17.0,70,0.02,,,0.27,Weather View 32 v70,2013-02-05 19:32:00,
2013-02-05 14:37:00,45.6,36.0,27.99,SW,225,8.0,17.0,69,0.03,,,0.28,Weather View 32 v70,2013-02-05 19:37:00,
2013-02-05 14:42:00,45.5,35.9,27.99,SW,225,16.0,17.0,69,0.03,,,0.28,Weather View 32 v70,2013-02-05 19:42:00,
2013-02-05 14:47:00,45.1,36.2,27.99,SW,225,11.0,17.0,71,0.02,,,0.28,Weather View 32 v70,2013-02-05 19:47:00,
2013-02-05 14:52:00,44.8,36.3,27.99,SW,225,6.0,17.0,72,0.02,,,0.28,Weather View 32 v70,2013-02-05 19:52:00,
2013-02-05 14:57:00,44.6,36.5,27.99,WSW,247,11.0,17.0,73,0.02,,,0.28,Weather View 32 v70,2013-02-05 19:57:00,
2013-02-05 15:02:00,44.3,36.2,27.99,SW,225,9.0,17.0,73,0.02,,,0.28,Weather View 32 v70,2013-02-05 20:02:00,
2013-02-05 15:07:00,44.3,36.5,28.00,SW,225,10.0,17.0,74,0.02,,,0.29,Weather View 32 v70,2013-02-05 20:07:00,
2013-02-05 15:12:00,44.4,36.3,28.00,SW,225,9.0,17.0,73,0.02,,,0.29,Weather View 32 v70,2013-02-05 20:12:00,
2013-02-05 15:17:00,44.6,36.5,28.00,WSW,247,9.0,17.0,73,0.02,,,0.29,Weather View 32 v70,2013-02-05 20:17:00,
2013-02-05 15:22:00,44.8,36.3,28.00,SW,225,14.0,17.0,72,0.02,,,0.29,Weather View 32 v70,2013-02-05 20:22:00,
2013-02-05 15:27:00,44.9,36.1,28.00,SW,225,9.0,17.0,71,0.02,,,0.29,Weather View 32 v70,2013-02-05 20:27:00,
2013-02-05 15:32:00,45.1,36.2,28.00,SSW,202,7.0,17.0,71,0.02,,,0.29,Weather View 32 v70,2013-02-05 20:32:00,
2013-02-05 15:37:00,45.2,36.0,28.00,SW,225,9.0,17.0,70,0.01,,,0.29,Weather View 32 v70,2013-02-05 20:37:00,
2013-02-05 15:42:00,45.2,35.6,28.00,SSW,202,11.0,17.0,69,0.02,,,0.30,Weather View 32 v70,2013-02-05 20:42:00,
2013-02-05 15:47:00,45.0,35.8,28.00,SSW,202,9.0,16.0,70,0.02,,,0.30,Weather View 32 v70,2013-02-05 20:47:00,
2013-02-05 15:52:00,45.1,35.9,28.00,SW,225,8.0,16.0,70,0.02,,,0.30,Weather View 32 v70,2013-02-05 20:52:00,
2013-02-05 15:57:00,45.1,35.9,28.00,SSW,202,11.0,16.0,70,0.02,,,0.30,Weather View 32 v70,2013-02-05 20:57:00,
2013-02-05 16:02:00,45.1,35.5,28.00,SW,225,11.0,16.0,69,0.02,,,0.30,Weather View 32 v70,2013-02-05 21:02:00,
2013-02-05 16:07:00,45.1,35.9,28.00,SW,225,9.0,16.0,70,0.01,,,0.30,Weather View 32 v70,2013-02-05 21:07:00,
2013-02-05 16:12:00,44.9,35.7,28.00,SSW,202,7.0,16.0,70,0.01,,,0.30,Weather View 32 v70,2013-02-05 21:12:00,
2013-02-05 16:17:00,44.9,35.7,28.01,WSW,247,11.0,16.0,70,0.01,,,0.30,Weather View 32 v70,2013-02-05 21:17:00,
2013-02-05 16:22:00,44.9,35.3,28.01,SW,225,6.0,16.0,69,0.02,,,0.31,Weather View 32 v70,2013-02-05 21:22:00,
2013-02-05 16:27:00,44.9,35.3,28.01,West,270,7.0,16.0,69,0.02,,,0.31,Weather View 32 v70,2013-02-05 21:27:00,
2013-02-05 16:32:00,44.9,35.3,28.01,WSW,247,4.0,16.0,69,0.02,,,0.31,Weather View 32 v70,2013-02-05 21:32:00,
2013-02-05 16:37:00,44.9,35.0,28.01,West,270,3.0,15.0,68,0.02,,,0.31,Weather View 32 v70,2013-02-05 21:37:00,
2013-02-05 16:42:00,44.9,35.0,28.01,West,270,2.0,15.0,68,0.01,,,0.31,Weather View 32 v70,2013-02-05 21:42:00,
2013-02-05 16:47:00,44.9,35.0,28.01,SW,225,4.0,15.0,68,0.01,,,0.31,Weather View 32 v70,2013-02-05 21:47:00,
2013-02-05 16:52:00,44.9,34.2,28.01,SW,225,5.0,15.0,66,0.01,,,0.31,Weather View 32 v70,2013-02-05 21:52:00,
2013-02-05 16:57:00,45.0,34.3,28.01,WSW,247,4.0,15.0,66,0.01,,,0.31,Weather View 32 v70,2013-02-05 21:57:00,
2013-02-05 17:02:00,44.9,34.2,28.01,SW,225,4.0,14.0,66,0.01,,,0.31,Weather View 32 v70,2013-02-05 22:02:00,
2013-02-05 17:07:00,45.0,33.1,28.01,SW,225,4.0,14.0,63,0.01,,,0.31,Weather View 32 v70,2013-02-05 22:07:00,
2013-02-05 17:12:00,44.8,33.7,28.01,SW,225,4.0,14.0,65,0.01,,,0.31,Weather View 32 v70,2013-02-05 22:12:00,
2013-02-05 17:17:00,44.7,33.6,28.01,SW,225,7.0,14.0,65,0.01,,,0.32,Weather View 32 v70,2013-02-05 22:17:00,
2013-02-05 17:22:00,44.9,33.0,28.01,WSW,247,2.0,12.0,63,0.01,,,0.32,Weather View 32 v70,2013-02-05 22:22:00,
2013-02-05 17:27:00,44.8,33.0,28.01,SW,225,5.0,12.0,63,0.01,,,0.32,Weather View 32 v70,2013-02-05 22:27:00,
2013-02-05 17:32:00,44.8,32.6,28.01,SW,225,4.0,12.0,62,0.01,,,0.32,Weather View 32 v70,2013-02-05 22:32:00,
2013-02-05 17:37:00,44.5,32.7,28.01,SW,225,6.0,12.0,63,0.01,,,0.32,Weather View 32 v70,2013-02-05 22:37:00,
2013-02-05 17:42:00,44.4,32.2,28.01,WSW,247,4.0,12.0,62,0.01,,,0.32,Weather View 32 v70,2013-02-05 22:42:00,
2013-02-05 17:47:00,44.5,31.5,28.02,SW,225,6.0,12.0,60,0.01,,,0.32,Weather View 32 v70,2013-02-05 22:47:00,
2013-02-05 17:52:00,44.5,31.0,28.01,West,270,9.0,12.0,59,0.01,,,0.32,Weather View 32 v70,2013-02-05 22:52:00,
2013-02-05 17:57:00,44.4,30.9,28.02,SW,225,6.0,12.0,59,0.01,,,0.32,Weather View 32 v70,2013-02-05 22:57:00,
2013-02-05 18:02:00,44.2,30.8,28.01,South,180,4.0,12.0,59,0.01,,,0.32,Weather View 32 v70,2013-02-05 23:02:00,
2013-02-05 18:07:00,44.4,30.1,28.01,SW,225,6.0,13.0,57,0.01,,,0.32,Weather View 32 v70,2013-02-05 23:07:00,
2013-02-05 18:12:00,44.3,30.0,28.01,WSW,247,4.0,13.0,57,0.01,,,0.32,Weather View 32 v70,2013-02-05 23:12:00,
2013-02-05 18:17:00,44.1,29.8,28.01,SW,225,3.0,13.0,57,0.01,,,0.32,Weather View 32 v70,2013-02-05 23:17:00,
2013-02-05 18:22:00,43.8,30.0,28.01,SW,225,3.0,13.0,58,0.00,,,0.32,Weather View 32 v70,2013-02-05 23:22:00,
2013-02-05 18:27:00,43.6,29.8,28.01,SW,225,3.0,13.0,58,0.01,,,0.33,Weather View 32 v70,2013-02-05 23:27:00,
2013-02-05 18:32:00,43.6,30.2,28.02,SW,225,3.0,13.0,59,0.01,,,0.33,Weather View 32 v70,2013-02-05 23:32:00,
2013-02-05 18:37:00,43.2,30.2,28.02,SSW,202,4.0,13.0,60,0.01,,,0.33,Weather View 32 v70,2013-02-05 23:37:00,
2013-02-05 18:42:00,42.8,30.3,28.02,South,180,3.0,13.0,61,0.01,,,0.33,Weather View 32 v70,2013-02-05 23:42:00,
2013-02-05 18:47:00,42.9,30.4,28.02,SW,225,3.0,13.0,61,0.01,,,0.33,Weather View 32 v70,2013-02-05 23:47:00,
2013-02-05 18:52:00,42.5,30.4,28.02,SSW,202,8.0,13.0,62,0.01,,,0.33,Weather View 32 v70,2013-02-05 23:52:00,
2013-02-05 18:58:00,42.6,30.5,28.03,SSW,202,4.0,13.0,62,0.01,,,0.33,Weather View 32 v70,2013-02-05 23:58:00,
2013-02-05 19:03:00,42.2,30.5,28.03,SSW,202,3.0,13.0,63,0.01,,,0.33,Weather View 32 v70,2013-02-06 00:03:00,
2013-02-05 19:08:00,41.9,31.0,28.03,SSW,202,3.0,11.0,65,0.01,,,0.33,Weather View 32 v70,2013-02-06 00:08:00,
2013-02-05 19:13:00,41.9,30.6,28.03,South,180,4.0,9.0,64,0.01,,,0.33,Weather View 32 v70,2013-02-06 00:13:00,
2013-02-05 19:18:00,41.8,30.9,28.03,SSW,202,1.0,9.0,65,-0.28,,,0.33,Weather View 32 v70,2013-02-06 00:18:00,
2013-02-05 19:23:00,41.6,31.1,28.03,SSW,202,4.0,9.0,66,0.01,,,0.33,Weather View 32 v70,2013-02-06 00:23:00,
2013-02-05 19:28:00,41.4,30.9,28.03,SSW,202,6.0,9.0,66,0.00,,,0.33,Weather View 32 v70,2013-02-06 00:28:00,
2013-02-05 19:33:00,40.7,31.0,28.03,SW,225,4.0,9.0,68,0.00,,,0.33,Weather View 32 v70,2013-02-06 00:33:00,
2013-02-05 19:38:00,40.5,31.1,28.03,SSW,202,4.0,9.0,69,0.00,,,0.33,Weather View 32 v70,2013-02-06 00:38:00,
2013-02-05 19:43:00,40.2,31.2,28.04,SW,225,3.0,9.0,70,0.00,,,0.33,Weather View 32 v70,2013-02-06 00:43:00,
2013-02-05 19:48:00,40.1,31.1,28.03,SW,225,4.0,9.0,70,0.00,,,0.33,Weather View 32 v70,2013-02-06 00:48:00,
2013-02-05 19:53:00,39.8,31.2,28.03,SW,225,2.0,9.0,71,0.01,,,0.34,Weather View 32 v70,2013-02-06 00:53:00,
2013-02-05 19:58:00,39.5,31.2,28.03,South,180,3.0,7.0,72,0.01,,,0.34,Weather View 32 v70,2013-02-06 00:58:00,
2013-02-05 20:03:00,39.4,31.5,28.03,SSW,202,4.0,7.0,73,0.01,,,0.34,Weather View 32 v70,2013-02-06 01:03:00,
2013-02-05 20:08:00,39.2,31.3,28.03,South,180,4.0,7.0,73,0.01,,,0.34,Weather View 32 v70,2013-02-06 01:08:00,
2013-02-05 20:13:00,39.4,31.1,28.03,SW,225,3.0,7.0,72,0.01,,,0.34,Weather View 32 v70,2013-02-06 01:13:00,
2013-02-05 20:18:00,39.2,31.3,28.04,SW,225,4.0,7.0,73,0.01,,,0.34,Weather View 32 v70,2013-02-06 01:18:00,
2013-02-05 20:23:00,39.2,31.3,28.04,SW,225,2.0,7.0,73,0.01,,,0.34,Weather View 32 v70,2013-02-06 01:23:00,
2013-02-05 20:28:00,38.5,31.3,28.03,SW,225,2.0,7.0,75,0.01,,,0.34,Weather View 32 v70,2013-02-06 01:28:00,
2013-02-05 20:33:00,36.7,29.5,28.04,WSW,247,2.0,7.0,75,0.01,,,0.34,Weather View 32 v70,2013-02-06 01:33:00,
2013-02-05 20:38:00,35.8,30.2,28.04,WSW,247,1.0,7.0,80,0.01,,,0.34,Weather View 32 v70,2013-02-06 01:38:00,
2013-02-05 20:43:00,35.3,29.7,28.03,WSW,247,1.0,7.0,80,0.01,,,0.34,Weather View 32 v70,2013-02-06 01:43:00,
2013-02-05 20:48:00,34.5,29.3,28.04,WSW,247,2.0,7.0,81,0.01,,,0.34,Weather View 32 v70,2013-02-06 01:48:00,
2013-02-05 20:53:00,34.2,29.9,28.03,WSW,247,1.0,7.0,84,0.00,,,0.34,Weather View 32 v70,2013-02-06 01:53:00,
2013-02-05 20:58:00,34.6,30.0,28.03,SW,225,1.0,7.0,83,0.00,,,0.34,Weather View 32 v70,2013-02-06 01:58:00,
2013-02-05 21:03:00,34.5,29.6,28.03,SW,225,2.0,6.0,82,0.00,,,0.34,Weather View 32 v70,2013-02-06 02:03:00,
2013-02-05 21:08:00,33.9,29.3,28.03,West,270,1.0,6.0,83,0.00,,,0.34,Weather View 32 v70,2013-02-06 02:08:00,
2013-02-05 21:13:00,33.3,29.3,28.04,West,270,2.0,5.0,85,0.00,,,0.34,Weather View 32 v70,2013-02-06 02:13:00,
2013-02-05 21:18:00,32.9,28.9,28.04,West,270,2.0,5.0,85,0.00,,,0.34,Weather View 32 v70,2013-02-06 02:18:00,
2013-02-05 21:23:00,32.9,28.9,28.04,West,270,2.0,3.0,85,0.00,,,0.34,Weather View 32 v70,2013-02-06 02:23:00,
2013-02-05 21:28:00,32.5,28.5,28.04,West,270,0.0,2.0,85,0.01,,,0.35,Weather View 32 v70,2013-02-06 02:28:00,
2013-02-05 21:33:00,32.4,28.7,28.04,West,270,2.0,2.0,86,0.01,,,0.35,Weather View 32 v70,2013-02-06 02:33:00,
2013-02-05 21:38:00,32.7,29.0,28.04,West,270,1.0,2.0,86,0.01,,,0.35,Weather View 32 v70,2013-02-06 02:38:00,
2013-02-05 21:43:00,32.7,28.7,28.04,West,270,1.0,2.0,85,0.01,,,0.35,Weather View 32 v70,2013-02-06 02:43:00,
2013-02-05 21:48:00,32.3,28.3,28.04,West,270,2.0,2.0,85,0.01,,,0.35,Weather View 32 v70,2013-02-06 02:48:00,
2013-02-05 21:53:00,32.0,28.6,28.04,West,270,2.0,2.0,87,0.01,,,0.35,Weather View 32 v70,2013-02-06 02:53:00,
2013-02-05 21:58:00,33.3,29.8,28.04,WSW,247,2.0,4.0,87,0.01,,,0.35,Weather View 32 v70,2013-02-06 02:58:00,
2013-02-05 22:04:00,33.9,29.6,28.05,NW,315,0.0,4.0,84,0.01,,,0.35,Weather View 32 v70,2013-02-06 03:04:00,
2013-02-05 22:09:00,33.7,29.7,28.05,West,270,2.0,4.0,85,0.01,,,0.35,Weather View 32 v70,2013-02-06 03:09:00,
2013-02-05 22:14:00,33.4,29.4,28.05,West,270,2.0,4.0,85,0.01,,,0.35,Weather View 32 v70,2013-02-06 03:14:00,
2013-02-05 22:19:00,33.4,29.4,28.05,West,270,0.0,4.0,85,0.01,,,0.35,Weather View 32 v70,2013-02-06 03:19:00,
2013-02-05 22:24:00,33.5,29.8,28.05,West,270,0.0,4.0,86,0.01,,,0.35,Weather View 32 v70,2013-02-06 03:24:00,
2013-02-05 22:29:00,33.6,29.9,28.05,West,270,0.0,4.0,86,0.00,,,0.35,Weather View 32 v70,2013-02-06 03:29:00,
2013-02-05 22:34:00,33.7,29.7,28.05,West,270,0.0,4.0,85,0.00,,,0.35,Weather View 32 v70,2013-02-06 03:34:00,
2013-02-05 22:39:00,33.7,29.7,28.05,West,270,0.0,4.0,85,0.00,,,0.35,Weather View 32 v70,2013-02-06 03:39:00,
2013-02-05 22:44:00,33.4,29.4,28.05,West,270,0.0,4.0,85,0.00,,,0.35,Weather View 32 v70,2013-02-06 03:44:00,
2013-02-05 22:49:00,33.3,29.6,28.05,West,270,0.0,4.0,86,0.00,,,0.35,Weather View 32 v70,2013-02-06 03:49:00,
2013-02-05 22:54:00,33.3,30.1,28.05,West,270,0.0,4.0,88,0.00,,,0.35,Weather View 32 v70,2013-02-06 03:54:00,
2013-02-05 22:59:00,33.5,29.8,28.05,West,270,0.0,4.0,86,0.00,,,0.35,Weather View 32 v70,2013-02-06 03:59:00,
2013-02-05 23:04:00,33.8,30.3,28.05,West,270,0.0,2.0,87,0.00,,,0.35,Weather View 32 v70,2013-02-06 04:04:00,
2013-02-05 23:09:00,33.9,30.4,28.05,West,270,0.0,2.0,87,0.00,,,0.35,Weather View 32 v70,2013-02-06 04:09:00,
2013-02-05 23:14:00,33.9,30.2,28.06,West,270,0.0,2.0,86,0.00,,,0.35,Weather View 32 v70,2013-02-06 04:14:00,
2013-02-05 23:19:00,34.0,30.3,28.06,West,270,0.0,2.0,86,0.00,,,0.35,Weather View 32 v70,2013-02-06 04:19:00,
2013-02-05 23:24:00,34.2,30.7,28.06,West,270,0.0,2.0,87,0.00,,,0.35,Weather View 32 v70,2013-02-06 04:24:00,
2013-02-05 23:29:00,34.8,30.7,28.06,West,270,0.0,2.0,85,0.00,,,0.35,Weather View 32 v70,2013-02-06 04:29:00,
2013-02-05 23:34:00,35.1,31.0,28.06,NW,315,0.0,4.0,85,0.01,,,0.36,Weather View 32 v70,2013-02-06 04:34:00,
2013-02-05 23:39:00,35.1,31.0,28.06,West,270,2.0,4.0,85,0.01,,,0.36,Weather View 32 v70,2013-02-06 04:39:00,
2013-02-05 23:44:00,34.9,30.8,28.06,West,270,0.0,4.0,85,0.01,,,0.36,Weather View 32 v70,2013-02-06 04:44:00,
2013-02-05 23:49:00,34.6,30.8,28.06,West,270,0.0,4.0,86,0.01,,,0.36,Weather View 32 v70,2013-02-06 04:49:00,
2013-02-05 23:54:00,34.4,30.9,28.07,WNW,292,1.0,4.0,87,0.01,,,0.36,Weather View 32 v70,2013-02-06 04:54:00,
2013-02-05 23:59:00,34.3,31.1,28.06,WNW,292,0.0,4.0,88,0.01,,,0.36,Weather View 32 v70,2013-02-06 04:59:00,